This is the latest recevied weather packets stored in our database for station/object KM7BEO. If no packets are shown the sender has not sent any weather packets the latest 10 day(s).
| Time | Temp. | Humidity | Pressure | Rain* | Wind** | Luminosity | Snow |
|---|---|---|---|---|---|---|---|
| 1777868951 | 16.67° C | 59% | 1009 hPa | 0 mm | - | 0 W/m² | - |
| 1777868648 | 16.67° C | 55% | 1009 hPa | 0 mm | - | 0 W/m² | - |
| 1777868344 | 16.67° C | 58% | 1008.8 hPa | 0 mm | - | 0 W/m² | - |
| 1777868040 | 16.67° C | 60% | 1008.9 hPa | 0 mm | - | 0 W/m² | - |
| 1777867736 | 16.67° C | 61% | 1008.9 hPa | 0 mm | - | 0 W/m² | - |
| 1777867434 | 16.67° C | 60% | 1009 hPa | 0 mm | - | 0 W/m² | - |
| 1777867130 | 16.67° C | 61% | 1008.9 hPa | 0 mm | - | 0 W/m² | - |
| 1777866828 | 16.67° C | 61% | 1008.8 hPa | 0 mm | - | 0 W/m² | - |
| 1777866524 | 17.22° C | 61% | 1008.8 hPa | 0 mm | - | 0 W/m² | - |
| 1777866222 | 17.22° C | 60% | 1008.7 hPa | 0 mm | - | 0 W/m² | - |
| 1777865918 | 17.78° C | 59% | 1008.7 hPa | 0 mm | - | 1 W/m² | - |
| 1777865617 | 17.78° C | 59% | 1008.6 hPa | 0 mm | - | 2 W/m² | - |
| 1777865313 | 17.78° C | 59% | 1008.5 hPa | 0 mm | - | 3 W/m² | - |
| 1777865010 | 17.78° C | 62% | 1008.6 hPa | 0 mm | - | 4 W/m² | - |
| 1777864707 | 18.33° C | 61% | 1008.7 hPa | 0 mm | - | 5 W/m² | - |
| 1777864404 | 18.33° C | 60% | 1008.5 hPa | 0 mm | - | 7 W/m² | - |
| 1777864100 | 18.89° C | 63% | 1008.7 hPa | 0 mm | - | 10 W/m² | - |
| 1777863798 | 18.89° C | 60% | 1008.7 hPa | 0 mm | - | 12 W/m² | - |
| 1777863494 | 19.44° C | 62% | 1008.7 hPa | 0 mm | - | 15 W/m² | - |
| 1777863191 | 20° C | 61% | 1008.7 hPa | 0 mm | - | 17 W/m² | - |
| 1777862888 | 20° C | 58% | 1008.6 hPa | 0 mm | - | 19 W/m² | - |
| 1777862584 | 20° C | 57% | 1008.7 hPa | 0 mm | - | 21 W/m² | - |
| 1777862281 | 20.56° C | 55% | 1008.8 hPa | 0 mm | - | 23 W/m² | - |
| 1777861977 | 20.56° C | 53% | 1009 hPa | 0 mm | - | 27 W/m² | - |
| 1777861673 | 20.56° C | 53% | 1008.9 hPa | 0 mm | - | 34 W/m² | - |
* Rain latest hour (hover to see other rain measurements)
** Current wind speed in m/s (hover to see current wind gust speed)